Location: Moscow
(55.7500°N, 37.5830°E)
Time: 06:49:39
(UTC+03:00)

Transit 2A - Pass Details

Date: 30 November 2021
Orbit: 591 x 967 km, 66.7° (Epoch: 17 January)

Event Time Altitude Azimuth Distance (km) Brightness Sun altitude
Exits shadow 07:30:17 - 313° (NW) 2,788 8.3 -8.3°
Reaches altitude 10° 07:30:37 10° 314° (NW) 2,677 8.2 -8.2°
Maximum altitude 07:36:32 39° 23° (NNE) 1,407 7.3 -7.5°
Drops below altitude 10° 07:42:30 10° 92° (E) 2,700 10.0 -6.7°
Sets 07:45:14 0° 100° (E) 3,624 11.1 -6.4°
